Regional Weather Roundup
Issued by NWS Cleveland, OH

Home | Current Version | Previous Version | Graphics & Text | Print | Product List | Glossary On
Versions: 1 2 3 4 5 6 7 8 9 10 11 12 13 14 15 16 17 18 19 20 21 22 23 24 25 26 27 28 29 30 31 32 33 34 35 36 37 38 39 40 41 42 43 44 45 46 47 48 49 50
395
ASUS41 KCLE 032100
RWRCLE
OHIO REGIONAL WEATHER ROUNDUP
NATIONAL WEATHER SERVICE WILMINGTON, OH
500 PM EDT TUE MAY 03 2016

NOTE: "FAIR" INDICATES FEW OR NO CLOUDS BELOW 12,000 FEET WITH NO
SIGNIFICANT WEATHER AND/OR OBSTRUCTIONS TO VISIBILITY.

OHZ001>008-015>018-024>027-034-035-043-044-032200-
   NORTHWEST OHIO

CITY           SKY/WX    TMP DP  RH WIND       PRES   REMARKS
DEFIANCE       PTSUNNY   60  37  42 CALM      29.84F
FINDLAY        CLOUDY    61  37  41 W12G17    29.83F
TOLEDO EXPRESS CLOUDY    61  37  41 SW8       29.83F
TOLEDO EXEC    PTSUNNY   59  46  62 SE7       29.84F
LIMA           CLOUDY    59  44  57 W7        29.85F
$$

OHZ009>014-019>023-028>033-038-089-032200-
   NORTHEAST OHIO

CITY           SKY/WX    TMP DP  RH WIND       PRES   REMARKS
CLE-HOPKINS    FAIR      59  38  45 N9        29.87F
CLE-LAKEFRONT  FAIR      52  42  69 W5        29.85F
CUY CO. ARPT   MOSUNNY   59  43  55 N12       29.85F
LORAIN-ELYRIA  CLOUDY    58  36  43 N8        29.85F
ASHTABULA      FAIR      55  40  56 N8        29.84F
AKRON-CANTON   PTSUNNY   62  38  40 W10       29.82F
WOOSTER        NOT AVBL
MANSFIELD      CLOUDY    57  44  62 CALM      29.84F
YOUNGSTOWN     PTSUNNY   58  39  49 N6        29.81F
$$

OHZ042-051>053-060>062-070>072-077>081-032200-
  SOUTHWEST OHIO

CITY           SKY/WX    TMP DP  RH WIND       PRES   REMARKS
CINC-COVINGTON CLOUDY    59  48  67 NW10      29.88S
CINC-LUNKEN    CLOUDY    59  49  69 N3        29.88F
HAMILTON       CLOUDY    59  48  67 NW5       29.89S
DAYTON         NOT AVBL
WRIGHT-PAT AFB CLOUDY    59  50  72 CALM      29.86F
DAYTON GENERAL CLOUDY    58  45  62 CALM      29.86F
WILMINGTON     CLOUDY    57  47  69 NW5       29.87S
$$

OHZ036-037-039>041-045>050-054>059-063>069-073>076-082>088-032200-
  CENTRAL AND SOUTHEAST OHIO

CITY           SKY/WX    TMP DP  RH WIND       PRES   REMARKS
COLUMBUS       LGT RAIN  56  47  71 N13       29.84F
OSU AIRPORT    CLOUDY    58  46  64 NW8       29.85F
BOLTON FIELD   CLOUDY    55  48  76 NW8       29.86S
RICKENBACK AFB NOT AVBL
NEWARK         CLOUDY    61  44  53 W5        29.83S
MARION         CLOUDY    59  44  57 NW7       29.85F
LANCASTER      CLOUDY    58  48  69 W7        29.85S
ZANESVILLE     PTSUNNY   62  45  53 NW5       29.83F
NEW PHILLY     PTSUNNY   61  40  45 W7        29.82F
$$




USA.gov is the U.S. government's official web portal to all federal, state and local government web resources and services.